Weather History for North Adams, MA

Change the Weather History Date:

Tuesday, October 9, 2012

  Actual Average Record
Temperature  
Mean Temperature 45 °F -  
Max Temperature 55 °F 60 °F 80 °F (2011)
Min Temperature 35 °F 39 °F 25 °F (2001)
Degree Days  
Heating Degree Days 20    
Moisture  
Dew Point 40 °F    
Average Humidity 81    
Maximum Humidity 100    
Minimum Humidity 66    
Precipitation  
Precipitation 0.00 in - - ()
Sea Level Pressure  
Sea Level Pressure 30.23 in    
Wind  
Wind Speed 4 mph (ESE)    
Max Wind Speed 13 mph    
Max Gust Speed 22 mph    
Visibility 8 miles    
Events Fog    
Averages and records for this station are not official NWS values.
T = Trace of Precipitation, MM = Missing Value Source: NWS Daily Summary

Daily Weather History Graph

Daily Weather History Graph

Search for Another Location

Airport:

Trip Planner

Search our weather history database for the weather conditions in past years. The results will help you decide how hot, cold, wet, or windy it might be!

Date:

Astronomy

Oct. 09, 2012 Rise Set
Actual Time 6:59 AM EDT 6:19 PM EDT
Civil Twilight 6:31 AM EDT 6:47 PM EDT
Nautical Twilight 5:58 AM EDT 7:20 PM EDT
Astronomical Twilight 5:25 AM EDT 7:53 PM EDT
Moon 12:25 AM EDT (10/9) 2:52 PM EDT (10/9)
Length of Visible Light 12h 16m
Length of Day
11h 20m
Last Quarter, 37% of the Moon is Illuminated
Oct 9
Last Quarter
Oct 15
New
Oct 21
First Quarter
Oct 29
Full
Nov 6
Last Quarter

Hourly Weather History & Observations

Time (EDT) Temp. Dew Point Humidity Pressure Visibility Wind Dir Wind Speed Gust Speed Precip Events Conditions
12:37 AM 35.6 °F 33.8 °F 93% 30.28 in 10.0 mi Calm Calm - N/A   Partly Cloudy
1:14 AM 35.6 °F 33.8 °F 93% 30.28 in 10.0 mi Calm Calm - N/A   Mostly Cloudy
1:42 AM 35.6 °F 33.8 °F 93% 30.28 in 1.8 mi Calm Calm - N/A   Overcast
1:52 AM 35.1 °F 34.0 °F 96% 30.30 in 4.0 mi Calm Calm - N/A   Overcast
2:00 AM 35.6 °F 33.8 °F 93% 30.29 in 1.8 mi Calm Calm - N/A   Overcast
2:02 AM 35.6 °F 33.8 °F 93% 30.29 in 1.0 mi Calm Calm - N/A   Mist
2:10 AM 35.6 °F 33.8 °F 93% 30.28 in 0.5 mi Calm Calm - N/A Fog Fog
2:27 AM 35.6 °F 35.6 °F 100% 30.27 in 1.5 mi Calm Calm - N/A   Overcast
2:29 AM 35.6 °F 35.6 °F 100% 30.27 in 3.0 mi Calm Calm - N/A   Overcast
2:52 AM 37.0 °F 36.0 °F 96% 30.29 in 10.0 mi Calm Calm - N/A   Overcast
3:52 AM 37.9 °F 37.0 °F 97% 30.27 in 10.0 mi Calm Calm - N/A   Overcast
4:52 AM 39.0 °F 37.0 °F 93% 30.29 in 10.0 mi Calm Calm - N/A   Overcast
5:52 AM 37.9 °F 37.0 °F 97% 30.28 in 10.0 mi Calm Calm - N/A   Scattered Clouds
7:52 AM 41.0 °F 39.0 °F 93% 30.27 in 10.0 mi Calm Calm - N/A   Overcast
8:52 AM 50.0 °F 41.0 °F 71% 30.26 in 10.0 mi East 10.4 mph 17.3 mph N/A   Overcast
9:52 AM 51.1 °F 41.0 °F 68% 30.27 in 10.0 mi East 11.5 mph - N/A   Overcast
10:52 AM - - N/A% 30.25 in 10.0 mi North - - N/A   Overcast
11:48 AM 53.6 °F 42.8 °F 67% 30.24 in - ESE 11.5 mph 18.4 mph N/A   Overcast
11:52 AM 53.1 °F 42.1 °F 66% 30.25 in - ESE 6.9 mph 18.4 mph N/A   Overcast
12:52 PM 54.0 °F 44.1 °F 69% 30.24 in - Variable 6.9 mph - N/A   Overcast
1:52 PM 55.0 °F 44.1 °F 67% 30.20 in 10.0 mi ESE 11.5 mph 19.6 mph N/A   Mostly Cloudy
2:20 PM 53.6 °F 44.6 °F 72% 30.18 in 10.0 mi ESE 12.7 mph - N/A   Mostly Cloudy
2:30 PM 55.4 °F 44.6 °F 67% 30.19 in 10.0 mi ESE 10.4 mph 21.9 mph N/A   Mostly Cloudy
2:52 PM 54.0 °F 44.1 °F 69% 30.19 in 10.0 mi East 9.2 mph - N/A   Mostly Cloudy
3:52 PM 53.1 °F 43.0 °F 69% 30.18 in 10.0 mi East 10.4 mph 16.1 mph N/A   Overcast
4:52 PM 53.1 °F 42.1 °F 66% 30.17 in 10.0 mi ESE 8.1 mph - N/A   Overcast
5:52 PM 53.1 °F 43.0 °F 69% 30.17 in 10.0 mi ESE 9.2 mph - N/A   Overcast
6:52 PM 52.0 °F 44.1 °F 74% 30.17 in 10.0 mi Variable 4.6 mph - N/A   Overcast
7:52 PM 52.0 °F 45.0 °F 77% 30.16 in 10.0 mi East 8.1 mph - N/A   Overcast
8:52 PM 52.0 °F 45.0 °F 77% 30.16 in 10.0 mi ESE 12.7 mph - N/A   Overcast
9:32 PM 51.8 °F 44.6 °F 76% 30.14 in 10.0 mi ESE 8.1 mph - N/A   Overcast
9:44 PM 51.8 °F 44.6 °F 76% 30.15 in 10.0 mi ESE 10.4 mph - N/A   Overcast
9:52 PM 52.0 °F 45.0 °F 77% 30.15 in 10.0 mi East 10.4 mph - N/A   Overcast
10:52 PM 51.1 °F 45.0 °F 80% 30.13 in 10.0 mi East 11.5 mph 17.3 mph N/A   Overcast
11:52 PM 51.1 °F 45.0 °F 80% 30.13 in 10.0 mi East 10.4 mph - N/A   Overcast